Regional Weather Roundup
Issued by NWS

Home | Current Version | Previous Version | Graphics & Text | Print | Product List | Glossary On
Versions: 1 2 3 4 5 6 7 8 9 10 11 12 13 14 15 16 17 18 19 20 21 22 23 24 25 26 27 28 29 30 31 32 33 34 35 36 37 38 39 40 41 42 43 44 45 46 47 48 49 50
000
ASUS43 KIND 220509
RWRIN

WEATHER ROUNDUP FOR INDIANA
NATIONAL WEATHER SERVICE INDIANAPOLIS IN
100 AM EDT SUN APR 22 2018

NOTE: "FAIR" INDICATES FEW OR NO CLOUDS BELOW 12,000 FEET WITH NO
SIGNIFICANT WEATHER AND/OR OBSTRUCTIONS TO VISIBILITY.

* - STATION DOES NOT REPORT WEATHER SUCH AS PRECIPITATION OR FOG.

+ - STATION NOT QUALITY CONTROLLED BY THE NATIONAL WEATHER SERVICE.
    USE DATA WITH CAUTION...ESPECIALLY DEWPOINT AND RELATIVE
    HUMIDITY OBSERVATIONS.

INZ001>003-010>013-019-020-220600-
NORTHWEST INDIANA

CITY           SKY/WX    TMP DP  RH WIND       PRES   REMARKS
GARY /AIRPORT/ FAIR      42  29  59 NE8       30.38F
KNOX *+        FAIR      43  32  65 NE5       30.35F
LA PORTE +     FAIR      46  27  46 NE6       30.37F
MICHIGAN CITY+ FAIR      37  30  75 CALM      30.37F
MONTICELLO +   FAIR      46  26  46 CALM      30.35R
RENSSELAER +   FAIR      45  23  42 E5        30.36R
VALPARAISO     FAIR      45  29  53 NE6       30.36F

$$

LMZ046-743>745-220600-
SOUTHERN LAKE MICHIGAN

STATION/POSITION TIME  TEMP    WIND        PRES    WAVE
                       AIR SEA DIR/SP/G            HT
                 (UTC) (F)     (DEG/KT/KT) (MB)    (FT)
BURNS HARBOR     0440   41      60/  8/  9 1028.8F
MICHIGAN CITY    0440   42      40/  8/  8   N/A

$$

INZ004-005-014>016-021>024-220600-
NORTH CENTRAL INDIANA

CITY           SKY/WX    TMP DP  RH WIND       PRES   REMARKS
GOSHEN         FAIR      43  32  65 CALM      30.38R
LOGANSPORT +   FAIR      46  28  49 E12       30.33F
PERU/GRISSOM   MOCLDY   N/A N/A N/A E8          N/A
ROCHESTER +    FAIR      50  28  43 E7        30.35F
SOUTH BEND     FAIR      41  27  57 N3        30.38F
WARSAW +       FAIR      43  32  65 E7        30.37S

$$

INZ006>009-017-018-025>027-220600-
NORTHEAST INDIANA

CITY           SKY/WX    TMP DP  RH WIND       PRES   REMARKS
AUBURN +       FAIR      45  23  42 CALM      30.39S
FORT WAYNE     CLOUDY    46  30  53 E9        30.38F
HUNTINGTON +   MOCLDY    46  30  55 E6        30.36F

$$

INZ028-029-035-036-043>045-051>053-220600-
WEST CENTRAL INDIANA

CITY           SKY/WX    TMP DP  RH WIND       PRES   REMARKS
CRAWFORDSVL +  FAIR      47  30  52 E9        30.31F
GREENCASTLE +  FAIR      50  27  40 E7        30.31S
LAFAYETTE      FAIR      48  28  46 NE6       30.34S
TERRE HAUTE    FAIR      51  29  42 E7        30.28F

$$

INZ030>032-037>040-046>048-054>057-064-065-220600-
CENTRAL INDIANA

CITY           SKY/WX    TMP DP  RH WIND       PRES   REMARKS
FRANKFORT +    MOCLDY    50  30  46 E8        30.35S
GREENWOOD *+   FAIR      49  28  44 NE7       30.33R
INDIANAPOLIS   CLOUDY    52  25  35 E10       30.33R
-EAGLE CREEK   FAIR      52  26  36 E9        30.32R
KOKOMO +       FAIR      45  31  58 SE7       30.36R
MARION +       FAIR      47  28  47 CALM      30.35S
MT COMFORT *+  FAIR      46  34  61 NE3       30.34R
SHELBYVILLE    FAIR      50  29  44 E12       30.31R
ZIONSVILLE +   FAIR      47  29  47 E8        30.33F

$$

INZ033-034-041-042-049-050-058-059-220600-
EAST CENTRAL INDIANA

CITY           SKY/WX    TMP DP  RH WIND       PRES   REMARKS
MUNCIE         FAIR      47  29  49 E8        30.34F
RICHMOND +     FAIR      43  32  65 NE9       30.33S

$$

INZ060-061-067>069-081>083-085>088-220600-
SOUTHWEST INDIANA

CITY           SKY/WX    TMP DP  RH WIND       PRES   REMARKS
EVANSVILLE     FAIR      56  33  42 NE13      30.22S
WASHINGTON +   FAIR      54  27  36 E8        30.25F

$$

INZ062-063-066-070>080-084-089>092-220600-
SOUTH CENTRAL AND SOUTHEAST INDIANA

CITY           SKY/WX    TMP DP  RH WIND       PRES   REMARKS
BATESVILLE +   CLEAR     48  27  43 MISG      30.32R
BEDFORD +      FAIR      54  21  28 E9        30.29F
BLOOMINGTON    FAIR      53  24  32 E7        30.29F
FRENCH LICK *+ FAIR      54  19  26 NE13      30.27F
MADISON *+     FAIR      52  19  28 E6        30.31S
NORTH VERNON + FAIR      50  23  34 E8        30.31S
SEYMOUR +      FAIR      52  28  40 E5        30.30F

$$





USA.gov is the U.S. government's official web portal to all federal, state and local government web resources and services.